Weather History for Cape Girardeau, MO

Change the Weather History Date:

Sunday, August 18, 2013

  Actual Average Record
Temperature  
Mean Temperature 71 °F 77 °F  
Max Temperature 80 °F 89 °F 101 °F (2000)
Min Temperature 61 °F 65 °F 49 °F (2012)
Degree Days  
Heating Degree Days 0 0  
Month to date heating degree days 1 0  
Since 1 June heating degree days 1 4  
Since 1 July heating degree days 1 0  
Cooling Degree Days 6 12  
Month to date cooling degree days 161 231  
Year to date cooling degree days 1005 1117  
Since 1 June cooling degree days 834 965  
Growing Degree Days 20 (Base 50)    
Moisture  
Dew Point 64 °F    
Average Humidity 84    
Maximum Humidity 100    
Minimum Humidity 67    
Precipitation  
Precipitation 0.00 in 0.10 in 0.83 in (1960)
Month to date precipitation 3.53 1.71  
Year to date precipitation 28.23 29.74  
Sea Level Pressure  
Sea Level Pressure 30.12 in    
Wind  
Wind Speed 2 mph (ENE)    
Max Wind Speed 10 mph    
Max Gust Speed 14 mph    
Visibility 6 miles    
Events Fog    
T = Trace of Precipitation, MM = Missing Value Source: NWS Daily Summary

Daily Weather History Graph

Daily Weather History Graph

Search for Another Location

Airport:

Trip Planner

Search our weather history database for the weather conditions in past years. The results will help you decide how hot, cold, wet, or windy it might be!

Date:

Astronomy

Aug. 18, 2013 Rise Set
Actual Time 6:17 AM CDT 7:46 PM CDT
Civil Twilight 5:49 AM CDT 8:13 PM CDT
Nautical Twilight 5:16 AM CDT 8:46 PM CDT
Astronomical Twilight 4:42 AM CDT 9:20 PM CDT
Moon 5:50 PM CDT (8/18) 3:28 AM CDT (8/18)
Length of Visible Light 14h 23m
Length of Day
13h 28m
Waxing Gibbous, 92% of the Moon is Illuminated
Aug 18
Waxing Gibbous
Aug 20
Full
Aug 28
Last Quarter
Sep 5
New
Sep 12
First Quarter

Hourly Weather History & Observations

Time (CDT) Temp. Dew Point Humidity Pressure Visibility Wind Dir Wind Speed Gust Speed Precip Events Conditions
12:53 AM 68.0 °F 63.0 °F 84% 30.10 in 10.0 mi NE 6.9 mph - N/A   Mostly Cloudy
1:53 AM 64.9 °F 62.1 °F 90% 30.09 in 8.0 mi NE 4.6 mph - N/A   Partly Cloudy
2:53 AM 63.0 °F 61.0 °F 93% 30.08 in 5.0 mi Calm Calm - N/A   Clear
3:53 AM 64.0 °F 62.1 °F 93% 30.09 in 5.0 mi Calm Calm - N/A   Overcast
4:35 AM 62.6 °F 60.8 °F 94% 30.09 in 1.2 mi Calm Calm - N/A   Clear
4:46 AM 62.6 °F 60.8 °F 94% 30.10 in 2.5 mi Calm Calm - N/A   Clear
4:53 AM 62.1 °F 61.0 °F 96% 30.09 in 2.5 mi Calm Calm - N/A   Clear
5:53 AM 61.0 °F 60.1 °F 97% 30.11 in 1.8 mi Calm Calm - N/A   Clear
6:08 AM 60.8 °F 60.8 °F 100% 30.11 in 0.2 mi Calm Calm - N/A Fog Fog
6:21 AM 60.8 °F 60.8 °F 100% 30.12 in 0.5 mi Calm Calm - N/A Fog Fog
6:31 AM 60.8 °F 60.8 °F 100% 30.12 in 0.2 mi Calm Calm - N/A Fog Fog
6:46 AM 62.6 °F 60.8 °F 94% 30.13 in 0.2 mi Calm Calm - N/A Fog Fog
6:53 AM 62.1 °F 61.0 °F 96% 30.12 in 0.2 mi Calm Calm - N/A Fog Fog
7:16 AM 64.4 °F 62.6 °F 94% 30.13 in 0.8 mi Calm Calm - N/A   Overcast
7:20 AM 64.4 °F 62.6 °F 94% 30.13 in 2.0 mi Calm Calm - N/A   Overcast
7:30 AM 64.4 °F 62.6 °F 94% 30.14 in 1.5 mi Calm Calm - N/A   Overcast
7:42 AM 64.4 °F 64.4 °F 100% 30.14 in 2.5 mi Calm Calm - N/A   Overcast
7:53 AM 66.0 °F 64.0 °F 93% 30.13 in 2.5 mi Calm Calm - N/A   Overcast
8:05 AM 66.2 °F 64.4 °F 94% 30.14 in 3.0 mi Calm Calm - N/A   Overcast
8:36 AM 69.8 °F 64.4 °F 83% 30.14 in 6.0 mi Calm Calm - N/A   Scattered Clouds
8:49 AM 69.8 °F 64.4 °F 83% 30.14 in 8.0 mi Calm Calm - N/A   Partly Cloudy
8:53 AM 71.1 °F 64.9 °F 81% 30.14 in 8.0 mi Calm Calm - N/A   Scattered Clouds
9:32 AM 71.6 °F 64.4 °F 78% 30.15 in 10.0 mi Calm Calm - N/A   Overcast
9:44 AM 71.6 °F 64.4 °F 78% 30.15 in 10.0 mi NE 5.8 mph - N/A   Mostly Cloudy
9:53 AM 72.0 °F 64.9 °F 78% 30.15 in 10.0 mi Calm Calm - N/A   Mostly Cloudy
10:18 AM 71.6 °F 64.4 °F 78% 30.15 in 10.0 mi NE 6.9 mph - N/A   Mostly Cloudy
10:53 AM 75.9 °F 66.9 °F 74% 30.15 in 10.0 mi ENE 6.9 mph - N/A   Overcast
11:53 AM 77.0 °F 68.0 °F 74% 30.14 in 10.0 mi SE 6.9 mph - N/A   Mostly Cloudy
12:09 PM 75.2 °F 66.2 °F 73% 30.15 in 10.0 mi SE 3.5 mph - N/A   Mostly Cloudy
12:53 PM 77.0 °F 68.0 °F 74% 30.13 in 10.0 mi South 5.8 mph - N/A   Mostly Cloudy
1:02 PM 78.8 °F 69.8 °F 74% 30.14 in 10.0 mi Variable 5.8 mph - N/A   Mostly Cloudy
1:42 PM 78.8 °F 68.0 °F 69% 30.13 in 10.0 mi Variable 4.6 mph - N/A   Mostly Cloudy
1:53 PM 79.0 °F 68.0 °F 69% 30.12 in 10.0 mi SSE 4.6 mph - N/A   Partly Cloudy
2:53 PM 78.1 °F 66.9 °F 68% 30.10 in 10.0 mi SSE 5.8 mph - N/A   Partly Cloudy
3:36 PM 78.8 °F 66.2 °F 65% 30.10 in 10.0 mi NE 10.4 mph - N/A   Mostly Cloudy
3:51 PM 75.2 °F 66.2 °F 73% 30.10 in 10.0 mi North 6.9 mph - N/A   Mostly Cloudy
3:53 PM 75.9 °F 66.0 °F 71% 30.09 in 10.0 mi NNE 8.1 mph - N/A   Mostly Cloudy
4:53 PM 73.9 °F 68.0 °F 82% 30.09 in 10.0 mi North 3.5 mph - N/A   Partly Cloudy
5:53 PM 79.0 °F 68.0 °F 69% 30.09 in 10.0 mi North 4.6 mph - N/A   Clear
6:53 PM 78.1 °F 66.0 °F 66% 30.07 in 10.0 mi Calm Calm - N/A   Clear
7:53 PM 72.0 °F 66.9 °F 84% 30.08 in 10.0 mi Calm Calm - N/A   Clear
8:53 PM 70.0 °F 66.9 °F 90% 30.09 in 8.0 mi Calm Calm - N/A   Clear
9:53 PM 68.0 °F 66.0 °F 93% 30.11 in 4.0 mi Calm Calm - N/A   Clear
10:40 PM 66.2 °F 66.2 °F 100% 30.11 in 1.8 mi Calm Calm - N/A   Clear
10:49 PM 66.2 °F 64.4 °F 94% 30.11 in 0.5 mi Calm Calm - N/A Fog Fog
10:53 PM 66.0 °F 64.9 °F 96% 30.11 in 0.8 mi Calm Calm - N/A   Clear
11:17 PM 64.4 °F 64.4 °F 100% 30.11 in 0.2 mi Calm Calm - N/A Fog Fog
11:28 PM 64.4 °F 64.4 °F 100% 30.11 in 1.0 mi Calm Calm - N/A   Mist
11:30 PM 64.4 °F 64.4 °F 100% 30.11 in 2.0 mi Calm Calm - N/A   Scattered Clouds
11:34 PM 64.4 °F 64.4 °F 100% 30.11 in 4.0 mi Calm Calm - N/A   Mostly Cloudy
11:53 PM 64.9 °F 63.0 °F 93% 30.11 in 1.0 mi Calm Calm - N/A   Mist
11:57 PM 64.4 °F 64.4 °F 100% 30.11 in 0.2 mi Calm Calm - N/A Fog Fog